SCP
-0 -0 -0 -0 0 0 0 -1 -0 1 1 1 1 1 0 0 0 0 0 0 0 0 0 0 0 0 0 0 0 0 0 0 0
0 -0 -0 -0 -0 0 1 -1 2 1 2 1 1 0 0 0 0 0 0 0 0 0 0 0 0 0 0 0 0 0 0 0 0
0 0 0 0 0 0 0 1 1 1 1 1 1 1 1 0 0 0 0 1 1 0 0 0 0 0 1 1 0 0 0 0 0
0 -0 0 1 1 1 1 0 1 1 1 0 0 1 0 1 1 1 1 1 1 1 0 0 0 0 0 1 1 1 1 0 0
-0 -0 0 0 0 -0 1 0 0 0 0 0 0 0 0 0 1 0 0 0 0 0 1 1 1 1 0 0 0 1 1 1 1
-0 0 0 0 0 0 0 0 0 0 0 0 0 0 0 0 0 0 0 0 0 0 0 0 0 0 0 0 0 0 0 1 1
-0 0 0 1 0 0 0 0 0 0 0 0 0 0 0 0 0 0 0 0 0 0 0 0 0 0 0 0 0 0 0 0 0
0 0 0 0 0 0 0 0 0 0 0 0 0 0 0 0 0 0 0 0 0 0 0 0 0 0 0 0 0 0 0 0 0
0 0 0 0 0 0 0 0 0 0 0 0 0 0 0 0 0 0 0 0 0 0 0 0 0 0 0 0 0 0 0 0 0
0 0 0 0 0 0 0 0 0 0 0 0 0 0 0 0 0 0 0 0 0 0 0 0 0 0 0 0 0 0 0 0 0
0 0 0 0 0 0 0 0 0 0 0 0 0 0 0 0 0 0 0 0 0 0 0 0 0 0 0 0 0 0 0 0 0
0 0 0 0 0 0 0 0 0 0 0 0 0 0 0 0 0 0 0 0 0 0 0 0 0 0 0 0 0 0 0 0 0
0 0 0 0 0 0 0 0 0 0 0 0 0 0 0 0 0 0 0 0 0 0 0 0 0 0 0 0 0 0 0 0 0
0 0 0 0 0 0 0 0 0 0 0 0 0 0 0 0 0 0 0 0 0 0 0 0 0 0 0 0 0 0 0 0 0
0 0 0 0 0 0 0 0 0 0 0 0 0 0 0 0 0 0 0 0 0 0 0 0 0 0 0 0 0 0 0 0 0
0 0 0 0 0 0 0 0 0 0 0 0 0 0 0 0 0 0 0 0 0 0 0 0 0 0 0 0 0 0 0 0 0
0 0 0 0 0 0 0 0 0 0 0 0 0 0 0 0 0 0 0 0 0 0 0 -0 -0 -0 -0 -0 0 0 0 0 0
0 0 0 0 0 0 0 0 0 0 0 0 0 0 0 0 0 0 0 0 -0 0 0 0 0 -0 -0 -0 -0 -0 -0 0 0
0 0 0 0 0 0 0 0 0 0 0 0 0 0 0 0 0 0 0 0 0 0 0 0 0 -0 -0 -0 -0 -0 -0 -0 -0
0 0 0 0 0 0 0 0 0 0 0 0 0 0 0 0 0 0 0 0 0 0 0 0 0 0 -0 -0 -0 -0 -0 -0 -0
Wind_Speed_500mb
84 73 56 50 66 58 41 53 52 32 21 28 25 18 12 11 9 12 13 15 19 23 29 19 26 22 25 28 33 38 41 42 46
73 77 34 43 60 27 51 47 35 29 28 23 21 16 18 16 21 21 21 21 17 16 19 19 23 30 34 36 38 36 40 43 46
49 27 24 31 42 39 38 30 24 25 31 31 17 15 12 9 14 11 18 24 25 26 28 27 27 23 26 27 30 31 31 36 33
36 79 61 59 58 45 40 31 28 32 29 26 26 15 12 6 14 11 9 11 10 17 22 26 27 29 33 36 32 27 28 28 31
24 51 40 38 45 37 33 38 23 23 18 16 11 6 11 13 12 16 16 21 22 24 27 24 23 25 29 35 36 33 34 34 28
5 47 48 38 23 13 18 23 18 16 9 4 15 21 23 23 22 28 32 38 39 41 42 39 40 41 41 41 40 41 40 35 38
22 65 55 39 34 22 11 13 9 7 13 18 21 25 24 26 28 31 35 40 42 44 44 46 50 50 49 48 49 51 48 47 45
53 62 49 35 28 18 19 18 13 13 13 16 18 24 26 29 33 37 40 42 42 43 43 43 46 48 48 48 49 46 43 47 48
55 55 44 37 33 25 12 21 9 5 11 18 24 32 32 33 32 31 34 35 36 39 40 40 43 48 51 53 50 46 46 50 54
47 36 32 26 31 23 20 11 4 13 18 25 30 29 34 40 39 37 34 33 32 38 42 43 41 39 42 45 52 57 56 51 49
41 32 22 14 14 9 5 2 12 21 17 25 32 37 36 37 32 33 34 35 34 37 39 42 44 49 51 44 42 45 53 61 50
30 23 22 16 6 8 10 9 16 19 20 24 29 32 28 29 31 32 32 32 34 36 40 45 44 46 50 51 40 38 48 40 36
33 25 21 16 15 12 5 3 14 8 16 26 28 29 27 26 28 30 30 35 35 34 38 44 40 42 46 51 32 35 42 30 27
29 21 18 11 8 5 5 9 8 11 20 26 26 25 36 37 31 34 27 32 34 37 41 47 50 46 41 45 35 27 30 34 31
31 26 22 11 11 10 7 13 9 14 23 33 28 26 25 31 35 39 49 33 37 38 52 56 60 61 56 43 39 36 36 39 37
27 24 18 16 12 7 7 15 14 15 22 29 23 22 25 28 23 29 38 38 36 38 51 51 59 67 72 65 49 43 43 39 39
30 22 19 16 9 8 10 11 6 13 20 24 24 28 25 32 34 18 29 28 38 34 42 60 55 62 65 69 73 72 66 51 45
28 22 14 10 9 8 9 9 13 18 15 16 16 19 30 37 41 44 47 52 54 48 39 45 60 66 66 70 68 72 76 69 51
27 20 16 13 9 9 13 13 17 21 16 18 14 15 22 36 35 40 42 50 51 47 42 40 42 55 62 67 69 67 64 72 56
23 19 15 11 9 10 11 10 19 20 19 15 19 24 16 40 25 35 36 45 45 55 41 38 44 49 50 57 64 67 75 65 60
Wind_Direction_500mb
152 154 176 189 190 208 207 175 167 160 156 143 127 105 71 41 15 336 303 302 307 306 297 283 293 296 295 298 298 296 277 272 267
177 178 183 173 192 181 125 134 137 146 133 121 110 73 55 50 33 17 3 350 339 351 348 326 298 297 303 303 300 294 291 283 275
137 155 143 160 151 112 109 111 119 128 118 99 113 97 89 42 20 347 337 348 339 332 329 324 318 315 318 312 312 304 291 294 291
310 95 93 93 105 114 118 118 122 115 121 141 134 165 177 181 200 216 201 260 256 281 292 296 301 304 302 301 306 313 315 309 301
13 122 121 131 120 128 135 145 154 141 169 167 168 215 256 258 246 257 259 267 263 269 263 266 272 283 285 289 293 297 299 301 302
172 154 155 145 145 149 192 126 130 125 117 346 300 300 298 289 286 291 292 295 294 292 291 290 284 282 274 274 277 281 280 283 292
186 143 142 134 139 142 141 84 76 18 345 331 313 315 313 314 319 317 313 310 310 308 304 297 291 288 284 281 275 273 276 280 283
158 124 125 134 141 140 73 57 40 10 356 331 330 327 327 326 318 315 313 310 310 308 306 304 298 297 293 287 282 280 278 271 267
122 127 134 128 115 94 95 124 130 62 357 334 319 322 329 330 333 334 325 321 322 320 321 316 309 304 298 292 289 282 276 273 271
124 109 99 106 115 107 100 100 38 10 338 324 331 334 330 327 329 333 332 334 342 346 343 337 333 329 320 309 296 287 279 275 276
107 112 113 96 101 119 139 307 328 330 325 320 321 323 325 329 340 349 354 353 346 340 341 344 345 346 341 324 318 318 296 279 274
120 123 119 97 127 199 224 290 319 321 308 322 331 328 340 1 356 345 340 341 343 346 343 346 351 352 351 346 343 349 347 317 278
130 141 133 105 121 128 161 357 350 339 334 336 341 4 360 351 346 356 357 348 346 345 343 340 344 348 356 360 347 357 345 344 310
125 124 115 154 173 98 36 354 46 344 338 347 15 18 23 17 18 2 360 8 9 3 1 354 353 350 359 0 352 338 341 347 336
122 115 128 124 132 99 46 359 61 350 352 357 3 27 19 9 12 12 6 16 10 17 17 21 16 10 4 359 351 341 329 324 318
130 139 125 107 110 119 16 29 54 3 360 360 25 42 26 356 5 16 5 10 14 16 12 19 18 15 14 12 2 341 330 323 324
137 136 133 135 135 78 47 58 37 358 351 4 43 34 12 353 9 2 360 357 359 356 5 13 11 9 8 11 14 11 1 341 331
134 131 125 129 105 83 44 40 354 358 17 20 44 36 12 19 8 11 15 22 21 19 17 10 16 23 18 11 6 9 7 360 344
140 134 129 110 94 54 33 30 354 360 20 23 43 18 348 13 356 345 355 3 3 9 0 0 357 4 5 15 14 9 5 12 6
136 128 121 119 94 71 41 15 356 22 23 68 41 19 35 3 16 1 3 2 358 353 359 354 346 347 352 2 5 7 12 9 16
Wind_Speed_850mb
84 73 56 50 66 58 41 53 52 32 21 28 25 18 12 11 9 12 13 15 19 23 29 19 26 22 25 28 33 38 41 42 46
73 77 34 43 60 27 51 47 35 29 28 23 21 16 18 16 21 21 21 21 17 16 19 19 23 30 34 36 38 36 40 43 46
49 27 24 31 42 39 38 30 24 25 31 31 17 15 12 9 14 11 18 24 25 26 28 27 27 23 26 27 30 31 31 36 33
36 79 61 59 58 45 40 31 28 32 29 26 26 15 12 6 14 11 9 11 10 17 22 26 27 29 33 36 32 27 28 28 31
24 51 40 38 45 37 33 38 23 23 18 16 11 6 11 13 12 16 16 21 22 24 27 24 23 25 29 35 36 33 34 34 28
5 47 48 38 23 13 18 23 18 16 9 4 15 21 23 23 22 28 32 38 39 41 42 39 40 41 41 41 40 41 40 35 38
22 65 55 39 34 22 11 13 9 7 13 18 21 25 24 26 28 31 35 40 42 44 44 46 50 50 49 48 49 51 48 47 45
53 62 49 35 28 18 19 18 13 13 13 16 18 24 26 29 33 37 40 42 42 43 43 43 46 48 48 48 49 46 43 47 48
55 55 44 37 33 25 12 21 9 5 11 18 24 32 32 33 32 31 34 35 36 39 40 40 43 48 51 53 50 46 46 50 54
47 36 32 26 31 23 20 11 4 13 18 25 30 29 34 40 39 37 34 33 32 38 42 43 41 39 42 45 52 57 56 51 49
41 32 22 14 14 9 5 2 12 21 17 25 32 37 36 37 32 33 34 35 34 37 39 42 44 49 51 44 42 45 53 61 50
30 23 22 16 6 8 10 9 16 19 20 24 29 32 28 29 31 32 32 32 34 36 40 45 44 46 50 51 40 38 48 40 36
33 25 21 16 15 12 5 3 14 8 16 26 28 29 27 26 28 30 30 35 35 34 38 44 40 42 46 51 32 35 42 30 27
29 21 18 11 8 5 5 9 8 11 20 26 26 25 36 37 31 34 27 32 34 37 41 47 50 46 41 45 35 27 30 34 31
31 26 22 11 11 10 7 13 9 14 23 33 28 26 25 31 35 39 49 33 37 38 52 56 60 61 56 43 39 36 36 39 37
27 24 18 16 12 7 7 15 14 15 22 29 23 22 25 28 23 29 38 38 36 38 51 51 59 67 72 65 49 43 43 39 39
30 22 19 16 9 8 10 11 6 13 20 24 24 28 25 32 34 18 29 28 38 34 42 60 55 62 65 69 73 72 66 51 45
28 22 14 10 9 8 9 9 13 18 15 16 16 19 30 37 41 44 47 52 54 48 39 45 60 66 66 70 68 72 76 69 51
27 20 16 13 9 9 13 13 17 21 16 18 14 15 22 36 35 40 42 50 51 47 42 40 42 55 62 67 69 67 64 72 56
23 19 15 11 9 10 11 10 19 20 19 15 19 24 16 40 25 35 36 45 45 55 41 38 44 49 50 57 64 67 75 65 60
Wind_Direction_850mb
152 154 176 189 190 208 207 175 167 160 156 143 127 105 71 41 15 336 303 302 307 306 297 283 293 296 295 298 298 296 277 272 267
177 178 183 173 192 181 125 134 137 146 133 121 110 73 55 50 33 17 3 350 339 351 348 326 298 297 303 303 300 294 291 283 275
137 155 143 160 151 112 109 111 119 128 118 99 113 97 89 42 20 347 337 348 339 332 329 324 318 315 318 312 312 304 291 294 291
310 95 93 93 105 114 118 118 122 115 121 141 134 165 177 181 200 216 201 260 256 281 292 296 301 304 302 301 306 313 315 309 301
13 122 121 131 120 128 135 145 154 141 169 167 168 215 256 258 246 257 259 267 263 269 263 266 272 283 285 289 293 297 299 301 302
172 154 155 145 145 149 192 126 130 125 117 346 300 300 298 289 286 291 292 295 294 292 291 290 284 282 274 274 277 281 280 283 292
186 143 142 134 139 142 141 84 76 18 345 331 313 315 313 314 319 317 313 310 310 308 304 297 291 288 284 281 275 273 276 280 283
158 124 125 134 141 140 73 57 40 10 356 331 330 327 327 326 318 315 313 310 310 308 306 304 298 297 293 287 282 280 278 271 267
122 127 134 128 115 94 95 124 130 62 357 334 319 322 329 330 333 334 325 321 322 320 321 316 309 304 298 292 289 282 276 273 271
124 109 99 106 115 107 100 100 38 10 338 324 331 334 330 327 329 333 332 334 342 346 343 337 333 329 320 309 296 287 279 275 276
107 112 113 96 101 119 139 307 328 330 325 320 321 323 325 329 340 349 354 353 346 340 341 344 345 346 341 324 318 318 296 279 274
120 123 119 97 127 199 224 290 319 321 308 322 331 328 340 1 356 345 340 341 343 346 343 346 351 352 351 346 343 349 347 317 278
130 141 133 105 121 128 161 357 350 339 334 336 341 4 360 351 346 356 357 348 346 345 343 340 344 348 356 360 347 357 345 344 310
125 124 115 154 173 98 36 354 46 344 338 347 15 18 23 17 18 2 360 8 9 3 1 354 353 350 359 0 352 338 341 347 336
122 115 128 124 132 99 46 359 61 350 352 357 3 27 19 9 12 12 6 16 10 17 17 21 16 10 4 359 351 341 329 324 318
130 139 125 107 110 119 16 29 54 3 360 360 25 42 26 356 5 16 5 10 14 16 12 19 18 15 14 12 2 341 330 323 324
137 136 133 135 135 78 47 58 37 358 351 4 43 34 12 353 9 2 360 357 359 356 5 13 11 9 8 11 14 11 1 341 331
134 131 125 129 105 83 44 40 354 358 17 20 44 36 12 19 8 11 15 22 21 19 17 10 16 23 18 11 6 9 7 360 344
140 134 129 110 94 54 33 30 354 360 20 23 43 18 348 13 356 345 355 3 3 9 0 0 357 4 5 15 14 9 5 12 6
136 128 121 119 94 71 41 15 356 22 23 68 41 19 35 3 16 1 3 2 358 353 359 354 346 347 352 2 5 7 12 9 16